METOP-B

Last updated on Sun Dec 14 2025 00:02:23 GMT+0000 (Coordinated Universal Time)

1 38771U 12049A 25347.21534546 .00000231 00000+0 12548-3 0 9991 2 38771 98.6800 37.1661 0002931 143.1168 217.0211 14.21408711686847
UTC large
Height (km)
Speed (km/s)
/
Latitude / Longitude
Inclination (degrees)
Orbital Period (minutes)
Azimuth
Elevation
Range (km)
Doppler Factor

Next 0 passes for location: London (51.5072 / 0.1276)

Sorry there are no passes over London.